User: anonymous   Login
Location: Wawayanda State Park
(41.1833°N, 74.4333°W)
Time: 02:08:46
(UTC-04:00)
Language:

RESURS DK-1 - Orbit

View from above orbital plane
View from above orbital plane
View from above satellite
View from above satellite

Ground track
Ground track

The orbit data is extracted from the following two-line orbital elements,

1 29228U 06021A   15210.71837223  .00000241  00000-0  26086-4 0  9997
2 29228 069.9379 048.9823 0006934 294.7614 065.2805 15.01552950504735
Epoch (UTC): 29 July 2015 17:14:27
Eccentricity: 0.0006934
inclination: 69.9379°
perigee height: 557 km
apogee height: 567 km
right ascension of ascending node: 48.9823°
argument of perigee: 294.7614°
revolutions per day: 15.01552950
mean anomaly at epoch: 65.2805°
orbit number at epoch: 50473

The dashed part of the orbit path shows where the satellite is in the earth's shadow,  

DLR